Weather History for Savannah Hunter, GA

Change the Weather History Date:

Saturday, February 2, 2013

  Actual Average Record
Temperature  
Mean Temperature 44 °F -  
Max Temperature 59 °F 60 °F 77 °F (2012)
Min Temperature 28 °F 39 °F 28 °F (2013)
Degree Days  
Heating Degree Days 22    
Moisture  
Dew Point 24 °F    
Average Humidity 48    
Maximum Humidity 81    
Minimum Humidity 22    
Precipitation  
Precipitation 0.00 in - - ()
Sea Level Pressure  
Sea Level Pressure 30.26 in    
Wind  
Wind Speed 5 mph (West)    
Max Wind Speed 9 mph    
Max Gust Speed -    
Visibility 10 miles    
Events      
Averages and records for this station are not official NWS values.
T = Trace of Precipitation, MM = Missing Value Source: NWS Daily Summary

Daily Weather History Graph

Daily Weather History Graph

Search for Another Location

Airport:

Trip Planner

Search our weather history database for the weather conditions in past years. The results will help you decide how hot, cold, wet, or windy it might be!

Date:

Astronomy

Feb. 02, 2013 Rise Set
Actual Time 7:17 AM EST 5:59 PM EST
Civil Twilight 6:51 AM EST 6:25 PM EST
Nautical Twilight 6:22 AM EST 6:54 PM EST
Astronomical Twilight 5:53 AM EST 7:23 PM EST
Moon No Moon Rise 10:54 AM EST (2/2)
Length of Visible Light 11h 33m
Length of Day
10h 42m
Waning Gibbous, 60% of the Moon is Illuminated
Feb 2
Waning Gibbous
Feb 3
Last Quarter
Feb 10
New
Feb 17
First Quarter
Feb 25
Full

Hourly Weather History & Observations

Time (EST) Temp. Windchill Dew Point Humidity Pressure Visibility Wind Dir Wind Speed Gust Speed Precip Events Conditions
12:55 AM 39.6 °F 33.5 °F 9.5 °F 29% 30.35 in 10.0 mi NNW 9.2 mph - N/A   Clear
1:55 AM 37.2 °F 33.6 °F 11.1 °F 34% 30.35 in 10.0 mi NNW 4.6 mph - N/A   Clear
2:55 AM 34.3 °F 29.2 °F 13.3 °F 42% 30.35 in 10.0 mi NW 5.8 mph - N/A   Clear
3:55 AM 32.9 °F 28.5 °F 14.0 °F 46% 30.35 in 10.0 mi NNW 4.6 mph - N/A   Clear
4:55 AM 31.5 °F 25.8 °F 15.4 °F 52% 30.34 in 10.0 mi NNW 5.8 mph - N/A   Clear
5:55 AM 30.6 °F 24.7 °F 16.0 °F 55% 30.36 in 10.0 mi NW 5.8 mph - N/A   Clear
6:55 AM 29.8 °F - 17.1 °F 59% 30.35 in 10.0 mi Calm Calm - N/A   Clear
7:55 AM 28.9 °F 23.9 °F 19.9 °F 69% 30.36 in 10.0 mi WNW 4.6 mph - N/A   Clear
8:55 AM 37.0 °F 34.5 °F 21.0 °F 52% 30.37 in 10.0 mi North 3.5 mph - N/A   Clear
9:55 AM 43.3 °F - 23.4 °F 45% 30.36 in 10.0 mi Calm Calm - N/A   Clear
10:55 AM 50.9 °F - 24.4 °F 36% 30.34 in 10.0 mi Calm Calm - N/A   Clear
11:55 AM 54.5 °F - 25.9 °F 33% 30.31 in 10.0 mi SE 5.8 mph - N/A   Clear
12:55 PM 57.0 °F - 18.3 °F 22% 30.26 in 10.0 mi South 5.8 mph - N/A   Clear
1:55 PM 59.5 °F - 26.6 °F 28% 30.22 in 10.0 mi SSW 6.9 mph - N/A   Clear
2:55 PM 59.2 °F - 28.0 °F 31% 30.20 in 10.0 mi SSE 8.1 mph - N/A   Clear
3:55 PM 59.0 °F - 30.2 °F 34% 30.17 in 10.0 mi SE 6.9 mph - N/A   Clear
4:55 PM 56.5 °F - 36.1 °F 47% 30.17 in 10.0 mi SE 8.1 mph - N/A   Clear
5:55 PM 53.6 °F - 30.9 °F 42% 30.17 in 10.0 mi SSE 4.6 mph - N/A   Clear
6:55 PM 49.3 °F - 31.6 °F 51% 30.16 in 10.0 mi Calm Calm - N/A   Clear
7:55 PM 45.0 °F - 34.0 °F 65% 30.16 in 10.0 mi Calm Calm - N/A   Clear
8:55 PM 44.8 °F - 35.8 °F 71% 30.15 in 10.0 mi Calm Calm - N/A   Clear
9:55 PM 41.0 °F - 35.4 °F 81% 30.15 in 10.0 mi Calm Calm - N/A   Clear
10:55 PM 42.3 °F 40.5 °F 31.3 °F 65% 30.14 in 10.0 mi SW 3.5 mph - N/A   Clear
11:55 PM 44.1 °F 41.5 °F 30.2 °F 58% 30.13 in 10.0 mi WSW 4.6 mph - N/A   Mostly Cloudy